Wind_Speed
16 17 18 18 18 18 18 19 19 19 19 20 21 21 22 22 22 23 23 23 24 24 25 26 26 26 26 26 26 27 27 28 28 29 29 29 29 30
16 17 18 19 19 20 21 21 22 23 22 23 24 24 24 25 24 25 26 26 27 27 27 27 27 28 28 28 29 29 30 30 31 32 32 32 33 33
17 18 19 20 21 22 22 23 24 25 25 25 25 25 26 26 26 27 28 29 29 30 30 29 29 30 30 30 31 32 32 33 33 34 35 35 35 35
17 18 19 21 22 23 23 24 25 26 26 26 26 27 27 28 28 28 29 30 31 31 31 31 32 32 32 32 32 33 33 34 35 36 36 37 37 37
19 20 21 22 23 24 24 25 25 26 26 27 27 27 28 29 30 30 31 32 32 32 32 33 33 34 34 33 34 35 35 36 36 37 38 39 39 40
21 22 23 24 24 24 25 26 27 28 29 29 29 29 29 29 29 30 31 31 31 31 31 32 33 34 34 34 35 36 36 36 37 37 38 39 40 41
23 24 25 25 26 26 26 28 29 29 30 30 30 30 30 30 30 31 31 31 32 33 33 33 34 34 35 35 36 37 38 38 38 38 38 39 41 42
24 25 25 26 27 27 27 28 29 29 29 30 30 30 30 30 31 31 32 32 33 33 34 35 35 35 36 36 37 37 37 38 39 40 40 40 41 42
25 26 27 27 28 28 29 29 30 30 31 31 31 31 31 31 31 31 32 32 32 32 33 34 36 37 38 38 38 39 39 39 39 40 41 41 42 43
26 27 28 28 28 29 30 31 31 31 32 32 32 31 32 32 32 33 33 34 35 35 35 36 37 39 40 40 41 41 40 40 40 41 42 43 43 44
27 28 28 28 29 30 31 31 32 32 32 32 31 32 32 33 34 34 35 35 36 36 37 37 38 39 39 41 41 41 41 41 42 43 43 44 44 45
28 28 29 29 30 31 31 32 32 32 32 32 32 33 34 34 34 34 35 35 36 37 37 37 38 38 39 40 40 40 40 41 41 42 43 44 44 44
29 29 29 30 31 31 31 31 31 31 31 32 32 33 34 34 34 34 35 35 35 36 36 37 38 38 39 39 39 39 39 39 40 40 41 41 42 42
29 29 29 30 30 30 30 30 31 32 33 33 33 34 34 34 34 34 34 35 35 36 36 37 37 37 38 39 38 38 38 38 39 39 40 40 39 40
29 28 28 29 30 31 31 31 32 32 33 34 34 34 34 34 34 35 34 34 35 36 37 37 37 37 37 37 38 38 38 38 38 38 38 38 38 38
28 28 29 30 31 32 32 33 33 33 33 33 34 33 34 34 34 34 34 34 35 36 36 36 36 36 36 36 37 37 37 36 36 36 35 35 35 35
29 29 30 30 31 31 32 33 33 33 33 32 33 33 34 34 33 34 34 35 35 35 35 35 35 35 35 35 35 35 34 33 33 33 33 32 33 33
30 30 31 31 32 32 32 32 32 32 32 31 32 32 32 32 33 33 34 34 34 34 34 34 34 34 33 33 33 32 31 30 30 30 30 30 30 30
30 31 31 32 32 32 32 32 31 31 31 31 32 32 32 32 32 33 33 33 33 33 33 33 32 32 31 31 30 29 29 28 28 28 28 28 28 28
31 31 32 32 32 32 32 31 31 31 31 31 31 32 32 31 31 32 32 32 31 31 31 31 30 30 29 28 27 27 27 27 27 27 27 27 27 27
30 30 30 31 31 31 31 31 31 30 30 30 30 30 30 30 30 30 30 30 29 29 29 28 28 27 27 27 26 25 25 26 26 26 26 26 26 26
30 30 30 31 31 30 30 29 29 29 29 29 29 29 29 29 29 29 28 28 27 27 27 27 26 26 25 25 25 25 25 25 25 25 25 25 25 24
30 30 30 30 29 29 28 28 28 28 29 29 29 28 28 28 28 27 27 27 26 26 26 26 26 25 25 25 25 24 24 24 24 23 23 23 24 24
Wind_Direction
274 277 279 281 281 283 285 286 286 287 286 285 285 286 285 284 283 281 282 283 282 282 283 282 282 280 280 281 280 278 278 277 276 276 276 276 276 278
279 279 282 283 282 284 286 287 288 287 287 286 286 284 282 283 282 281 280 282 283 283 282 282 281 281 281 280 278 278 277 277 276 276 276 276 276 276
283 283 283 285 286 285 286 286 288 289 289 287 287 284 283 282 282 282 282 282 283 283 283 282 282 282 282 281 280 280 278 277 277 277 276 276 275 276
287 288 288 289 288 287 287 287 288 288 288 287 286 285 284 284 282 282 282 282 282 281 283 282 282 281 280 280 280 281 280 279 278 277 277 276 276 277
288 288 289 290 290 288 288 289 290 289 288 288 287 285 285 286 283 282 282 283 284 283 282 282 281 281 281 280 280 281 280 279 279 279 278 277 276 276
290 289 289 292 293 292 292 290 289 289 289 289 288 287 286 286 285 286 286 286 285 285 285 284 284 282 280 281 282 282 281 281 280 280 279 278 277 276
294 294 295 294 294 293 293 293 293 291 291 290 289 289 289 288 286 287 287 287 287 287 287 286 286 285 283 281 282 281 281 282 282 281 281 280 279 278
296 296 297 297 295 293 294 293 294 294 294 293 293 292 291 289 287 287 287 288 288 288 287 287 286 286 286 284 284 283 283 283 282 283 283 282 280 278
298 298 297 296 297 296 296 295 295 294 294 293 292 293 292 290 289 288 287 287 288 289 287 286 287 287 286 285 285 285 285 286 286 285 283 281 281 280
303 302 301 299 298 297 296 296 296 297 296 295 294 293 292 292 290 289 289 288 288 287 288 288 288 288 289 287 287 287 287 286 285 284 282 282 281 281
304 303 302 301 300 299 298 298 297 296 295 295 295 295 294 292 291 291 290 290 290 289 289 289 288 288 289 290 289 288 288 288 287 285 283 283 282 282
305 304 304 303 302 301 300 299 299 298 297 296 295 294 294 292 291 291 292 291 292 291 290 290 290 290 290 290 290 291 290 289 288 287 285 284 283 282
305 305 305 305 304 303 302 302 301 300 298 297 296 295 295 293 293 292 292 292 293 292 291 292 291 291 291 292 292 292 291 289 289 287 286 286 285 285
306 306 306 306 306 305 304 303 302 300 300 299 298 297 296 295 295 295 295 295 295 295 294 294 294 293 293 294 294 294 294 293 291 290 289 289 288 287
307 306 307 307 306 306 306 305 304 303 301 300 299 298 297 297 296 297 297 296 296 297 296 296 296 296 295 296 296 296 295 294 293 292 291 291 291 290
307 306 306 306 305 306 306 305 305 304 303 301 300 299 299 299 298 298 298 297 298 298 298 298 298 297 298 298 297 297 297 297 296 295 294 293 293 292
306 306 306 307 308 308 307 306 305 303 303 303 301 301 301 300 300 300 299 299 300 300 299 299 299 299 299 299 299 298 299 300 299 299 297 295 294 293
306 307 307 308 308 308 307 307 306 306 305 304 304 304 303 302 302 302 302 302 301 301 301 301 301 300 300 301 301 301 300 301 301 301 300 300 298 296
306 307 307 308 308 309 308 308 307 307 307 306 306 305 305 305 305 305 305 304 304 304 304 303 303 303 304 303 302 302 302 302 302 302 302 302 300 300
307 308 308 309 309 309 308 308 307 307 307 307 307 307 307 307 308 308 308 307 307 308 307 307 307 307 306 306 305 305 305 305 305 304 303 303 303 303
309 309 310 310 310 309 309 309 309 309 309 308 308 308 308 309 310 311 311 311 311 311 312 312 312 312 311 310 310 309 309 308 307 306 305 305 305 305
310 310 310 311 310 310 311 311 311 311 310 310 310 311 310 310 311 314 315 315 314 314 314 315 315 315 315 315 314 313 311 310 310 309 308 307 307 307
311 311 311 311 311 312 312 312 312 312 312 311 311 311 312 313 314 314 315 315 315 315 316 316 317 317 316 316 316 315 314 314 312 311 311 311 310 310
Height
5890 5891 5890 5890 5890 5889 5888 5888 5887 5886 5885 5884 5884 5883 5881 5880 5880 5878 5877 5876 5876 5875 5874 5873 5872 5870 5870 5869 5868 5867 5866 5865 5864 5863 5862 5861 5860 5859
5887 5887 5886 5886 5885 5885 5884 5883 5882 5881 5880 5879 5878 5876 5875 5874 5874 5872 5871 5870 5869 5868 5867 5865 5864 5863 5862 5861 5860 5859 5858 5857 5856 5855 5854 5853 5852 5850
5883 5882 5882 5881 5881 5880 5879 5878 5877 5875 5874 5873 5871 5870 5868 5867 5867 5866 5865 5863 5862 5861 5859 5858 5857 5855 5854 5853 5852 5851 5849 5848 5847 5845 5844 5843 5842 5841
5879 5878 5878 5877 5876 5874 5873 5872 5871 5870 5868 5866 5865 5863 5861 5860 5859 5858 5857 5855 5854 5853 5851 5850 5848 5847 5845 5844 5843 5841 5840 5838 5837 5836 5835 5834 5832 5831
5875 5874 5873 5872 5870 5869 5868 5866 5865 5863 5862 5860 5858 5856 5855 5853 5852 5850 5848 5847 5845 5844 5843 5841 5839 5838 5836 5835 5833 5832 5830 5828 5827 5825 5824 5823 5821 5820
5870 5869 5867 5866 5865 5863 5862 5860 5859 5857 5855 5853 5851 5849 5848 5846 5844 5842 5840 5839 5837 5835 5834 5832 5830 5828 5826 5825 5823 5822 5820 5818 5816 5814 5812 5811 5809 5808
5865 5864 5862 5861 5859 5857 5855 5854 5852 5850 5848 5846 5844 5842 5840 5838 5836 5834 5832 5830 5828 5826 5824 5823 5821 5818 5817 5815 5813 5811 5809 5807 5805 5803 5801 5799 5797 5796
5860 5858 5856 5854 5853 5851 5849 5847 5845 5843 5841 5838 5837 5834 5832 5830 5828 5826 5824 5822 5820 5818 5815 5813 5811 5808 5806 5805 5802 5800 5798 5795 5793 5792 5790 5788 5785 5784
5854 5852 5850 5848 5846 5844 5841 5839 5837 5835 5833 5831 5828 5826 5824 5821 5819 5817 5815 5812 5810 5808 5805 5803 5801 5798 5796 5793 5791 5789 5786 5784 5782 5779 5777 5775 5773 5771
5848 5846 5843 5841 5839 5837 5834 5832 5830 5827 5825 5822 5820 5817 5815 5812 5810 5808 5806 5803 5801 5798 5796 5793 5790 5788 5785 5782 5780 5777 5774 5772 5770 5767 5764 5762 5759 5757
5842 5839 5837 5834 5832 5829 5827 5824 5822 5819 5816 5814 5811 5809 5806 5803 5801 5799 5796 5793 5791 5788 5785 5782 5779 5776 5774 5771 5767 5764 5762 5759 5757 5754 5752 5749 5746 5744
5835 5833 5830 5827 5824 5821 5819 5816 5814 5811 5808 5806 5803 5800 5797 5794 5792 5789 5786 5783 5780 5778 5774 5771 5768 5765 5762 5759 5756 5753 5749 5746 5744 5741 5738 5735 5732 5730
5829 5826 5823 5820 5817 5814 5811 5808 5805 5803 5800 5797 5794 5791 5788 5785 5782 5779 5776 5773 5770 5767 5764 5761 5757 5754 5751 5748 5744 5741 5738 5734 5731 5728 5725 5722 5719 5716
5822 5819 5816 5813 5810 5807 5803 5800 5797 5794 5791 5788 5785 5782 5779 5776 5772 5769 5766 5763 5760 5757 5753 5750 5746 5743 5740 5736 5733 5729 5726 5722 5718 5715 5712 5709 5706 5703
5815 5812 5809 5806 5803 5799 5796 5793 5789 5786 5782 5779 5776 5773 5769 5766 5763 5760 5756 5753 5750 5746 5743 5739 5736 5732 5728 5725 5721 5717 5714 5710 5706 5703 5700 5697 5693 5691
5808 5805 5802 5799 5795 5792 5788 5784 5781 5777 5774 5770 5767 5764 5760 5757 5754 5750 5747 5743 5740 5736 5732 5729 5725 5721 5718 5714 5710 5706 5702 5699 5695 5692 5688 5685 5682 5679
5801 5798 5795 5791 5788 5784 5780 5776 5773 5769 5765 5762 5758 5755 5751 5748 5744 5741 5737 5734 5730 5726 5722 5719 5715 5711 5707 5703 5699 5695 5692 5688 5684 5681 5678 5675 5672 5669
5794 5790 5787 5784 5780 5776 5772 5768 5764 5761 5757 5753 5750 5746 5743 5739 5735 5732 5728 5724 5720 5716 5712 5708 5705 5701 5697 5693 5690 5686 5682 5679 5675 5672 5669 5666 5663 5660
5786 5783 5779 5776 5772 5768 5764 5761 5757 5753 5749 5745 5742 5738 5734 5730 5726 5722 5718 5714 5710 5707 5703 5699 5695 5691 5688 5685 5680 5677 5674 5670 5667 5664 5660 5657 5655 5651
5779 5775 5772 5768 5764 5760 5757 5753 5749 5745 5741 5737 5733 5730 5726 5722 5718 5714 5709 5705 5701 5698 5694 5690 5686 5683 5679 5676 5673 5669 5665 5662 5659 5656 5653 5650 5647 5643
5771 5768 5764 5760 5756 5753 5749 5745 5741 5737 5733 5730 5726 5722 5718 5714 5710 5706 5702 5697 5694 5690 5686 5683 5679 5675 5671 5668 5665 5662 5658 5655 5651 5648 5645 5642 5639 5636
5764 5761 5757 5753 5749 5745 5742 5738 5734 5730 5727 5723 5719 5715 5711 5707 5703 5699 5695 5691 5687 5684 5680 5676 5672 5668 5665 5662 5658 5655 5652 5648 5645 5641 5638 5635 5632 5629
5757 5754 5750 5746 5742 5738 5735 5731 5727 5724 5720 5716 5712 5708 5704 5700 5697 5693 5689 5685 5681 5678 5674 5670 5666 5663 5659 5656 5652 5649 5645 5642 5639 5636 5633 5629 5626 5623